Weather Roundup
Issued by NWS

Home | Current Version | Previous Version | Graphics & Text | Print | Product List | Glossary Off
Versions: 1 2 3 4 5 6 7 8 9 10 11 12 13 14 15 16 17 18 19 20 21 22 23 24 25 26 27 28 29 30 31 32 33 34 35 36 37 38 39 40 41 42 43 44 45 46 47 48 49 50

247
NZUS93 KARX 210959
HRRWXR

CURRENT HOURLY OBSERVATIONS ACROSS
MUCH OF THE UPPER MISSISSIPPI VALLEY
NATIONAL WEATHER SERVICE LA CROSSE WI
400 AM CST SAT JAN 21 2017


...SOUTHEAST MINNESOTA...


CITY           SKY/WX    TMP DP  RH WIND       PRES   REMARKS
ROCHESTER      LGT RAIN  34  34 100 E10       29.43F VSB 1/2 WCI  26
ROCHESTER/MAYO CLOUDY    35  36 100 NE7       29.44F VSB 1   WCI  29
WINONA         CLOUDY    34  34 100 SE5       29.49F FOG     WCI  30
AUSTIN         RAIN      36  34  93 E9        29.40F WCI  29
ALBERT LEA     LGT RAIN  36  36 100 E7        29.40F VSB 1   WCI  30
DODGE CENTER   MIX PCPN  34  34 100 CALM      29.42F VSB 1/4
PRESTON        DRZL/FOG  34  33  97 E6        29.43F VSB 3/4 WCI  28
OWATONNA       DRZL/FOG  36  34  93 E9        29.42F VSB 1   WCI  29
FARIBAULT      NOT AVBL
$$

...ELSEWHERE IN MINNESOTA...


CITY           SKY/WX    TMP DP  RH WIND       PRES   REMARKS
MINNEAPOLIS    CLOUDY    35  33  92 E8        29.46F FOG     WCI  29
INTNL FALLS    FLURRIES  33  32  96 E7        29.50F WCI  27
DULUTH         DRZL/FOG  34  34 100 E6        29.50F VSB 1/8 WCI  29
RED WING       CLOUDY    36  34  93 E3        29.47F FOG
REDWOOD FALLS  FOG       34  33  96 E6        29.40F VSB 1/4 WCI  29
MANKATO        CLOUDY    35  34  96 E9        29.42F FOG     WCI  28
WORTHINGTON    FOG       33  33 100 E7        29.37F VSB 1/4 WCI  27
FAIRMONT       LGT RAIN N/A N/A N/A E5        29.40F VSB 1
$$

...SOUTHWEST WISCONSIN...


CITY           SKY/WX    TMP DP  RH WIND       PRES   REMARKS
LA CROSSE      CLOUDY    40  36  86 N3        29.48F FOG
PRAIRIE DU CHI FOG       36  35  96 CALM      29.47F VSB 1/2
BOSCOBEL       FOG       37  36  96 NE5       29.49F VSB 1/2 WCI  33
LONE ROCK      FOG       37  36  93 E8        29.50F VSB 3/4 WCI  31
PLATTEVILLE    CLOUDY    37  37 100 E10       29.48F VSB 1/4 WCI  29
FORT MC COY    CLOUDY    34  34 100 E6        29.53F FOG     WCI  29
CAMP DOUGLAS   FOG       34  34 100 E6        29.52F VSB 1/4 WCI  29
MAUSTON-NEW LI FOG       35  35 100 SE3       29.52F VSB 1/2
VIROQUA        CLOUDY    35  35 100 E10       29.47F VSB 1/4 WCI  27
WIS DELLS      FOG       34  34 100 E6        29.53F VSB<1/4 WCI  29
$$

...ELSEWHERE IN WISCONSIN...


CITY           SKY/WX    TMP DP  RH WIND       PRES   REMARKS
MILWAUKEE      FOG       39  37  92 E5        29.56F VSB 1/8
MADISON        FOG       36  36 100 E5        29.53F VSB 1/4 WCI  32
GREEN BAY      FOG       36  36 100 E6        29.60F VSB 1/4 WCI  31
EAU CLAIRE     CLOUDY    34  34 100 E8        29.51F FOG     WCI  27
BLACK RVR FLS  CLOUDY    36  36 100 E6        29.51F FOG     WCI  31
MEDFORD        FOG       32  32  99 E6        29.52F VSB 1/2 WCI  27
WAUSAU         FOG       32  32 100 E7        29.54F VSB 3/4 WCI  26
WIS RAPIDS     FOG       34  34 100 E9        29.54F VSB 3/4 WCI  27
MARSHFIELD     FOG       33  32  96 E9        29.52F VSB 1/2 WCI  25
RICE LAKE      FOG       34  34 100 E5        29.53S VSB 1/2 WCI  30
$$

...NORTHEAST IOWA...


CITY           SKY/WX    TMP DP  RH WIND       PRES   REMARKS
WATERLOO       FOG       39  38  96 SE7       29.40F VSB 3/4 WCI  34
DUBUQUE        FOG       40  40 100 SE12      29.46F VSB 1/4 WCI  33
DECORAH        FOG       36  36 100 E12       29.41F VSB 1/4 WCI  27
MASON CITY     LGT RAIN  34  34 100 E6        29.40F FOG     WCI  29
CHARLES CITY   FOG       36  36 100 SE9       29.41F VSB 1/4 WCI  29
OELWEIN        FOG       37  37 100 SE12G23   29.41F VSB 3/4 WCI  30
$$

...ELSEWHERE IN IOWA...


CITY           SKY/WX    TMP DP  RH WIND       PRES   REMARKS
DES MOINES     FOG       43  42  97 S7        29.39F VSB 1/4
IOWA CITY      FOG       44  43  96 SE5       29.44F VSB 1/4
FORT DODGE     CLOUDY    36  34  93 E6        29.38F WCI  31
MARSHALLTOWN   FOG       40  40 100 S9        29.38F VSB 1/4 WCI  34
CEDAR RAPIDS   FOG       43  43 100 SE8       29.41F VSB 1/4
$$

...NORTHERN ILLINOIS...


CITY           SKY/WX    TMP DP  RH WIND       PRES   REMARKS
CHICAGO-OHARE  CLOUDY    46  46 100 S5        29.53F FOG
CHICAGO-MIDWAY CLOUDY    47  46  97 SE6       29.56F FOG
MOLINE         MOCLDY    48  45  89 S10       29.44F FOG
ROCKFORD       FOG       44  43  96 SE6       29.53F VSB 1/2
PEORIA         CLEAR     46  46 100 S7        29.51F FOG
$$

NOTE: "FAIR" INDICATES FEW OR NO CLOUDS BELOW 12,000 FEET WITH NO
SIGNIFICANT WEATHER AND/OR OBSTRUCTIONS TO VISIBILITY. WIND
SPEEDS ARE IN MILES-PER-HOUR.




USA.gov is the U.S. government's official web portal to all federal, state and local government web resources and services.